Regional Weather Roundup
Issued by NWS

Home | Current Version | Previous Version | Graphics & Text | Print | Product List | Glossary On
Versions: 1 2 3 4 5 6 7 8 9 10 11 12 13 14 15 16 17 18 19 20 21 22 23 24 25 26 27 28 29 30 31 32 33 34 35 36 37 38 39 40 41 42 43 44 45 46 47 48 49 50
000
ASUS43 KOAX 210002
RWRNE

WEATHER ROUNDUP FOR NEBRASKA
NATIONAL WEATHER SERVICE OMAHA NE
600 PM CST MON FEB 20 2017

NOTES: SATELLITE DATA IS BEING USED TO AUGMENT CLOUD COVER ABOVE
       12000 FEET.
       "FAIR" INDICATES FEW OR NO CLOUDS BELOW 12,000 FEET WITH NO
       SIGNIFICANT WEATHER AND/OR OBSTRUCTIONS TO VISIBILITY.

  * THESE STATIONS DO NOT REPORT WEATHER SUCH AS RAIN...SNOW OR FOG.

NEZ001>004-019>022-054>056-210100-
NEBRASKA PANHANDLE

CITY           SKY/WX    TMP DP  RH WIND       PRES   REMARKS
SCOTTSBLUFF    CLEAR     61  22  22 W10G21    29.92R
6HR MIN TEMP:  55; 6HR MAX TEMP:  64;

ALLIANCE       CLEAR     58  24  27 W14       29.90R
6HR MIN TEMP:  55; 6HR MAX TEMP:  62;

CHADRON        CLEAR     60  28  29 W14       29.85S
6HR MIN TEMP:  54; 6HR MAX TEMP:  64;

KIMBALL        CLEAR     58  24  26 W15G25    29.97S
SIDNEY         CLEAR     58  21  24 NW8       29.95R
6HR MIN TEMP:  53; 6HR MAX TEMP:  62;

$$

NEZ057>060-069>072-079>082-210100-
SOUTHWEST NEBRASKA

CITY           SKY/WX    TMP DP  RH WIND       PRES   REMARKS
NORTH PLATTE   CLEAR     60  21  22 NW8       29.93R
6HR MIN TEMP:  58; 6HR MAX TEMP:  64;

IMPERIAL       CLEAR     58  19  22 N6        29.96S
6HR MIN TEMP:  57; 6HR MAX TEMP:  63;

LEXINGTON      CLEAR     58  31  35 NW7       29.94R
MCCOOK         CLEAR     60  26  27 NW10      29.95R
6HR MIN TEMP:  60; 6HR MAX TEMP:  65;

OGALLALA       CLEAR     60  14  16 NW5       29.94S
$$

NEZ005>010-023>029-035>040-094-210100-
NORTH CENTRAL NEBRASKA

CITY           SKY/WX    TMP DP  RH WIND       PRES   REMARKS
VALENTINE      CLEAR     57  23  26 W9        29.87S
6HR MIN TEMP:  55; 6HR MAX TEMP:  62;

AINSWORTH      CLEAR     56  28  34 W6        29.89R
BROKEN BOW     CLEAR     58  28  32 N9        29.92R
6HR MIN TEMP:  51; 6HR MAX TEMP:  62; 6HR PCP: TRACE;

O`NEILL        CLEAR     56  36  47 W8        29.90R
ORD            CLEAR     57  31  37 NW9       29.91R
6HR MIN TEMP:  54; 6HR MAX TEMP:  62; 6HR PCP: TRACE;

THEDFORD       CLEAR     58  28  30 NW3       29.92R
$$

NEZ041-046>049-061>064-073>077-083>087-210100-
SOUTH CENTRAL NEBRASKA

CITY           SKY/WX    TMP DP  RH WIND       PRES   REMARKS
GRAND ISLAND   CLEAR     57  37  47 N13       29.91R
6HR MIN TEMP:  57; 6HR MAX TEMP:  64;

AURORA         CLEAR     55  39  56 N8        29.90R
HASTINGS       CLEAR     57  36  45 N9        29.92R
6HR MIN TEMP:  57; 6HR MAX TEMP:  65;

HEBRON         PTCLDY    60  42  52 N12       29.88R
HOLDREGE       CLEAR     58  31  35 NW6       29.94R
KEARNEY *      CLEAR     59  32  36 NW8       29.93R
YORK           CLEAR     55  41  58 NW12      29.90R
$$

NEZ011>018-030>034-042>045-210100-
NORTHEAST NEBRASKA

CITY           SKY/WX    TMP DP  RH WIND       PRES   REMARKS
NORFOLK        CLEAR     53  38  56 NW7       29.87R
6HR MIN TEMP:  53; 6HR MAX TEMP:  62;

ALBION         CLEAR     58  37  45 NW7       29.89R
BLAIR          MOCLDY    55  44  66 NW8       29.86R
FREMONT        CLEAR     54  42  65 NW3       29.86R
TEKAMAH        PTCLDY    54  44  69 NW3       29.85R
6HR MIN TEMP:  54; 6HR MAX TEMP:  61; 6HR PCP: TRACE;

WAYNE          CLEAR     53  44  71 NW8       29.86R
$$

NEZ050>053-065>068-078-088>093-210100-
SOUTHEAST NEBRASKA

CITY           SKY/WX    TMP DP  RH WIND       PRES   REMARKS
LINCOLN        CLEAR     58  43  57 N9        29.87R
6HR MIN TEMP:  58; 6HR MAX TEMP:  67;

OMAHA EPPLEY   MOCLDY    55  46  71 NW8       29.85R
6HR MIN TEMP:  55; 6HR MAX TEMP:  61; 6HR PCP: TRACE;

BEATRICE       CLEAR     59  47  64 NW10      29.85R
FALLS CITY     MOCLDY    59  53  80 SW6       29.85R
6HR MIN TEMP:  59; 6HR MAX TEMP:  63;

NEBRASKA CITY  CLOUDY    58  55  87 SW7       29.84R
PLATTSMOUTH    CLOUDY    57  46  66 NW13      29.83R
$$

NEZ044-045-051>053-067-210100-
OMAHA AREA

CITY           SKY/WX    TMP DP  RH WIND       PRES   REMARKS
OMAHA EPPLEY   MOCLDY    55  46  71 NW8       29.85R
6HR MIN TEMP:  55; 6HR MAX TEMP:  61; 6HR PCP: TRACE;

BLAIR          MOCLDY    55  44  66 NW8       29.86R
FREMONT        CLEAR     54  42  65 NW3       29.86R
MILLARD        PTCLDY    60  48  64 NW8       29.85R
PLATTSMOUTH    CLOUDY    57  46  66 NW13      29.83R
WAHOO          FAIR      54  42  64 N5        29.86R
$$




USA.gov is the U.S. government's official web portal to all federal, state and local government web resources and services.